Location: Grantsboro
(35.1404°N, 76.8424°W)
Time: 01:31:09
(UTC+00:00)

ASTRO E2 - Pass Details

Date: 18 January 2020
Orbit: 510 x 517 km, 31.4° (Epoch: 28 February)

Event Time Altitude Azimuth Distance (km) Brightness Sun altitude
Rises 00:18:20 0° 268° (W) 2,604 7.7 -23.8°
Reaches altitude 10° 00:20:50 10° 254° (WSW) 1,717 6.4 -24.3°
Maximum altitude 00:24:05 25° 199° (SSW) 1,058 4.5 -25.0°
Enters shadow 00:24:23 24° 191° (S) 1,065 4.4 -25.1°
